Back to Top

Language: 

My Weather Underground Personal Weather Station Historical Data with Graphs...

Delerius Weather Station Historical Data
Daily Summary for September 4, 2017 Units:  Metric    English   Both
« Previous Day
Next Day »
Daily Weekly Monthly Yearly Custom
  High: Low: Average:
Temperature: 21.4 °C 12.5 °C 16.8 °C
Dew Point: 17.8 °C 11.9 °C 14.9 °C
Humidity: 98 % 77 % 89 %
Wind Speed: 16.1 km/h 0 km/h 8 km/h
Wind Gust: 33.8 km/h - -
Wind:- - South
Pressure: 1011.4 hPa 1007.7 hPa -
Precipitation: 0.51 mm    
Historical Graphs
 
 
Tabular Data for September 4, 2017
Time Temperature Dew Point Pressure Wind Wind Speed Wind Gust Humidity Rainfall Rate (Hourly) solar Conditions
00:01 12.5 °C 11.9 °C 1008.7 hPa ESE 8 km/h 14.5 km/h 96 % 0 mm 0 W/m2
00:07 12.5 °C 11.9 °C 1008.7 hPa SE 6.4 km/h 12.9 km/h 96 % 0 mm 0 W/m2
00:12 12.5 °C 11.9 °C 1008.7 hPa ESE 4.8 km/h 11.3 km/h 96 % 0 mm 0 W/m2
00:17 12.5 °C 11.9 °C 1008.7 hPa SE 6.4 km/h 12.9 km/h 96 % 0 mm 0 W/m2
00:22 12.5 °C 11.9 °C 1008.7 hPa SE 8 km/h 14.5 km/h 96 % 0.25 mm 0 W/m2
00:27 12.6 °C 12 °C 1008.7 hPa SE 6.4 km/h 14.5 km/h 96 % 0.25 mm 0 W/m2
00:32 12.6 °C 12 °C 1009 hPa SE 4.8 km/h 12.9 km/h 96 % 0.25 mm 0 W/m2
00:37 12.6 °C 12 °C 1008.7 hPa SE 6.4 km/h 12.9 km/h 96 % 0.25 mm 0 W/m2
00:42 12.6 °C 12 °C 1008.7 hPa SE 8 km/h 14.5 km/h 96 % 0.25 mm 0 W/m2
00:47 12.6 °C 12 °C 1008.7 hPa SE 8 km/h 14.5 km/h 96 % 0.25 mm 0 W/m2
00:52 12.6 °C 12 °C 1008.7 hPa SE 6.4 km/h 12.9 km/h 96 % 0.25 mm 0 W/m2
00:57 12.6 °C 12 °C 1008.7 hPa ESE 4.8 km/h 9.7 km/h 96 % 0.25 mm 0 W/m2
01:02 12.6 °C 12 °C 1008.7 hPa ESE 4.8 km/h 12.9 km/h 96 % 0.25 mm 0 W/m2
01:07 12.6 °C 12 °C 1008.7 hPa SE 8 km/h 12.9 km/h 96 % 0.25 mm 0 W/m2
01:12 12.6 °C 12 °C 1008.7 hPa SE 8 km/h 12.9 km/h 96 % 0.25 mm 0 W/m2
01:17 12.7 °C 12.1 °C 1008.7 hPa SE 6.4 km/h 14.5 km/h 96 % 0.25 mm 0 W/m2
01:22 12.6 °C 12 °C 1008.7 hPa SE 9.7 km/h 14.5 km/h 96 % 0 mm 0 W/m2
01:27 12.6 °C 12 °C 1008.7 hPa SE 9.7 km/h 14.5 km/h 96 % 0.25 mm 0 W/m2
01:28 12.6 °C 12 °C 1008.7 hPa SE 8 km/h 14.5 km/h 96 % 0.25 mm 0 W/m2
01:33 12.7 °C 12.1 °C 1008.7 hPa SE 8 km/h 14.5 km/h 96 % 0.25 mm 0 W/m2
01:38 12.7 °C 12.1 °C 1008.4 hPa SE 9.7 km/h 16.1 km/h 96 % 0.25 mm 0 W/m2
01:43 12.7 °C 12.1 °C 1008.4 hPa SE 9.7 km/h 16.1 km/h 96 % 0.25 mm 0 W/m2
01:48 12.7 °C 12.1 °C 1008.4 hPa SE 9.7 km/h 19.3 km/h 96 % 0.25 mm 0 W/m2
01:53 12.7 °C 12.1 °C 1008.4 hPa SE 8 km/h 19.3 km/h 96 % 0.25 mm 0 W/m2
01:58 12.7 °C 12.1 °C 1008.4 hPa SE 8 km/h 17.7 km/h 96 % 0.25 mm 0 W/m2
02:03 12.7 °C 12.1 °C 1008.4 hPa SE 8 km/h 17.7 km/h 96 % 0.25 mm 0 W/m2
02:08 12.7 °C 12.2 °C 1008.4 hPa SE 8 km/h 14.5 km/h 97 % 0.25 mm 0 W/m2
02:13 12.7 °C 12.2 °C 1008 hPa ESE 8 km/h 14.5 km/h 97 % 0.25 mm 0 W/m2
02:18 12.7 °C 12.2 °C 1008 hPa ESE 8 km/h 14.5 km/h 97 % 0.25 mm 0 W/m2
02:23 12.7 °C 12.2 °C 1008 hPa ESE 8 km/h 14.5 km/h 97 % 0.25 mm 0 W/m2
02:28 12.7 °C 12.2 °C 1008 hPa ESE 6.4 km/h 14.5 km/h 97 % 0 mm 0 W/m2
02:33 12.7 °C 12.2 °C 1008.4 hPa ESE 6.4 km/h 14.5 km/h 97 % 0 mm 0 W/m2
02:38 12.7 °C 12.2 °C 1008.4 hPa ESE 6.4 km/h 14.5 km/h 97 % 0 mm 0 W/m2
02:43 12.7 °C 12.2 °C 1008 hPa ESE 8 km/h 14.5 km/h 97 % 0 mm 0 W/m2
02:48 12.7 °C 12.2 °C 1008 hPa ESE 9.7 km/h 16.1 km/h 97 % 0 mm 0 W/m2
02:53 12.7 °C 12.2 °C 1008 hPa ESE 9.7 km/h 17.7 km/h 97 % 0 mm 0 W/m2
02:58 12.7 °C 12.2 °C 1008 hPa SE 8 km/h 17.7 km/h 97 % 0 mm 0 W/m2
03:03 12.7 °C 12.2 °C 1008 hPa SE 9.7 km/h 16.1 km/h 97 % 0 mm 0 W/m2
03:08 12.7 °C 12.2 °C 1008 hPa SE 8 km/h 16.1 km/h 97 % 0 mm 0 W/m2
03:13 12.8 °C 12.3 °C 1008 hPa SE 8 km/h 14.5 km/h 97 % 0 mm 0 W/m2
03:18 12.8 °C 12.3 °C 1008 hPa SE 8 km/h 14.5 km/h 97 % 0 mm 0 W/m2
03:23 12.8 °C 12.3 °C 1008 hPa SE 8 km/h 16.1 km/h 97 % 0 mm 0 W/m2
03:28 12.8 °C 12.3 °C 1008.4 hPa ESE 6.4 km/h 16.1 km/h 97 % 0 mm 0 W/m2
03:33 12.8 °C 12.3 °C 1008 hPa ESE 4.8 km/h 12.9 km/h 97 % 0 mm 0 W/m2
03:35 12.8 °C 12.3 °C 1008.4 hPa ESE 4.8 km/h 12.9 km/h 97 % 0 mm 0 W/m2
03:40 12.8 °C 12.3 °C 1008 hPa SE 4.8 km/h 12.9 km/h 97 % 0 mm 0 W/m2
03:45 12.8 °C 12.3 °C 1008 hPa SE 6.4 km/h 11.3 km/h 97 % 0 mm 0 W/m2
03:50 12.8 °C 12.3 °C 1008 hPa SE 8 km/h 12.9 km/h 97 % 0 mm 0 W/m2
03:55 12.8 °C 12.3 °C 1008 hPa SE 6.4 km/h 12.9 km/h 97 % 0 mm 0 W/m2
04:00 12.8 °C 12.3 °C 1008 hPa SE 3.2 km/h 9.7 km/h 97 % 0 mm 0 W/m2
04:05 12.8 °C 12.3 °C 1008 hPa SE 3.2 km/h 9.7 km/h 97 % 0 mm 0 W/m2
04:10 12.8 °C 12.3 °C 1008 hPa SE 4.8 km/h 9.7 km/h 97 % 0 mm 0 W/m2
04:15 12.8 °C 12.3 °C 1008 hPa SSE 4.8 km/h 9.7 km/h 97 % 0 mm 0 W/m2
04:19 12.8 °C 12.3 °C 1008 hPa SSE 4.8 km/h 11.3 km/h 97 % 0 mm 0 W/m2
04:20 12.8 °C 12.3 °C 1008 hPa SSE 4.8 km/h 11.3 km/h 97 % 0 mm 0 W/m2
04:23 12.8 °C 12.3 °C 1008 hPa SSE 4.8 km/h 11.3 km/h 97 % 0 mm 0 W/m2
04:24 12.9 °C 12.4 °C 1008 hPa SSE 4.8 km/h 11.3 km/h 97 % 0 mm 0 W/m2
04:28 12.8 °C 12.3 °C 1008 hPa SE 4.8 km/h 11.3 km/h 97 % 0 mm 0 W/m2
04:33 12.9 °C 12.4 °C 1008 hPa SE 4.8 km/h 9.7 km/h 97 % 0 mm 0 W/m2
04:38 12.9 °C 12.4 °C 1008 hPa ESE 4.8 km/h 9.7 km/h 97 % 0 mm 0 W/m2
04:43 12.9 °C 12.4 °C 1008 hPa SE 4.8 km/h 9.7 km/h 97 % 0 mm 0 W/m2
04:48 12.9 °C 12.4 °C 1008 hPa SE 6.4 km/h 9.7 km/h 97 % 0 mm 0 W/m2
04:53 12.9 °C 12.4 °C 1008 hPa SE 6.4 km/h 9.7 km/h 97 % 0 mm 0 W/m2
04:58 12.9 °C 12.4 °C 1008 hPa SE 4.8 km/h 11.3 km/h 97 % 0 mm 0 W/m2
05:03 12.9 °C 12.4 °C 1008 hPa SE 4.8 km/h 11.3 km/h 97 % 0 mm 0 W/m2
05:08 12.9 °C 12.4 °C 1008 hPa SE 4.8 km/h 11.3 km/h 97 % 0 mm 0 W/m2
05:13 12.9 °C 12.4 °C 1008 hPa SE 6.4 km/h 11.3 km/h 97 % 0 mm 0 W/m2
05:18 12.9 °C 12.4 °C 1008 hPa SE 6.4 km/h 11.3 km/h 97 % 0 mm 0 W/m2
05:23 12.9 °C 12.4 °C 1008 hPa ESE 4.8 km/h 11.3 km/h 97 % 0 mm 0 W/m2
05:28 12.9 °C 12.4 °C 1008 hPa SE 4.8 km/h 9.7 km/h 97 % 0 mm 0 W/m2
05:33 12.9 °C 12.4 °C 1008 hPa SE 4.8 km/h 9.7 km/h 97 % 0 mm 0 W/m2
05:38 12.9 °C 12.4 °C 1008 hPa SE 4.8 km/h 9.7 km/h 97 % 0 mm 0 W/m2
05:43 12.9 °C 12.4 °C 1008 hPa ESE 4.8 km/h 11.3 km/h 97 % 0 mm 0 W/m2
05:44 12.9 °C 12.4 °C 1008 hPa ESE 4.8 km/h 11.3 km/h 97 % 0 mm 0 W/m2
05:49 12.9 °C 12.4 °C 1008 hPa ESE 4.8 km/h 11.3 km/h 97 % 0 mm 0 W/m2
05:54 13 °C 12.6 °C 1008 hPa ESE 4.8 km/h 9.7 km/h 97 % 0 mm 0 W/m2
05:59 13 °C 12.6 °C 1008 hPa ESE 4.8 km/h 11.3 km/h 97 % 0 mm 0 W/m2
06:04 13 °C 12.6 °C 1008 hPa ESE 4.8 km/h 11.3 km/h 97 % 0 mm 0 W/m2
06:05 13 °C 12.6 °C 1008 hPa ESE 4.8 km/h 11.3 km/h 97 % 0 mm 0 W/m2
06:10 13 °C 12.6 °C 1008 hPa East 3.2 km/h 9.7 km/h 97 % 0 mm 0 W/m2
06:15 13 °C 12.6 °C 1008 hPa ESE 3.2 km/h 9.7 km/h 97 % 0 mm 0 W/m2
06:20 13.1 °C 12.6 °C 1008 hPa SE 4.8 km/h 14.5 km/h 97 % 0 mm 0 W/m2
06:25 13.1 °C 12.6 °C 1008 hPa SE 6.4 km/h 14.5 km/h 97 % 0 mm 0 W/m2
06:31 13.1 °C 12.6 °C 1008 hPa SE 3.2 km/h 9.7 km/h 97 % 0 mm 0 W/m2
06:36 13.1 °C 12.6 °C 1008 hPa SE 1.6 km/h 8 km/h 97 % 0 mm 0 W/m2
06:41 13.1 °C 12.6 °C 1008 hPa SE 3.2 km/h 9.7 km/h 97 % 0 mm 0 W/m2
06:46 13.1 °C 12.6 °C 1008 hPa SE 4.8 km/h 9.7 km/h 97 % 0 mm 0 W/m2
06:51 13.1 °C 12.6 °C 1008 hPa SE 4.8 km/h 9.7 km/h 97 % 0 mm 5 W/m2
06:56 13.2 °C 12.7 °C 1007.7 hPa SE 4.8 km/h 9.7 km/h 97 % 0 mm 7 W/m2
07:01 13.2 °C 12.7 °C 1008 hPa SE 4.8 km/h 12.9 km/h 97 % 0 mm 7 W/m2
07:06 13.2 °C 12.7 °C 1007.7 hPa SE 4.8 km/h 12.9 km/h 97 % 0 mm 9 W/m2
07:11 13.2 °C 12.7 °C 1007.7 hPa SE 6.4 km/h 11.3 km/h 97 % 0 mm 9 W/m2
07:16 13.2 °C 12.7 °C 1007.7 hPa SE 4.8 km/h 11.3 km/h 97 % 0 mm 11 W/m2
07:21 13.3 °C 12.8 °C 1007.7 hPa SE 4.8 km/h 12.9 km/h 97 % 0 mm 16 W/m2
07:26 13.3 °C 12.8 °C 1007.7 hPa SE 8 km/h 12.9 km/h 97 % 0 mm 39 W/m2
07:31 13.3 °C 12.8 °C 1007.7 hPa SE 8 km/h 12.9 km/h 97 % 0 mm 54 W/m2
07:36 13.4 °C 12.9 °C 1008 hPa SSE 8 km/h 12.9 km/h 97 % 0 mm 37 W/m2
07:41 13.4 °C 12.9 °C 1008 hPa SSE 8 km/h 12.9 km/h 97 % 0 mm 37 W/m2
07:46 13.5 °C 13.1 °C 1008 hPa SE 8 km/h 12.9 km/h 97 % 0 mm 39 W/m2
07:51 13.5 °C 13.1 °C 1008 hPa SSE 8 km/h 14.5 km/h 97 % 0 mm 35 W/m2
07:56 13.6 °C 13.1 °C 1008.4 hPa South 6.4 km/h 14.5 km/h 97 % 0 mm 39 W/m2
08:01 13.6 °C 13.1 °C 1008.4 hPa South 3.2 km/h 9.7 km/h 97 % 0 mm 40 W/m2
08:06 13.7 °C 13.4 °C 1008.7 hPa South 4.8 km/h 11.3 km/h 98 % 0 mm 35 W/m2
08:11 13.7 °C 13.4 °C 1008.7 hPa South 6.4 km/h 11.3 km/h 98 % 0 mm 30 W/m2
08:16 13.7 °C 13.4 °C 1008.7 hPa South 6.4 km/h 11.3 km/h 98 % 0 mm 37 W/m2
08:21 13.7 °C 13.4 °C 1008.7 hPa SSW 4.8 km/h 11.3 km/h 98 % 0 mm 40 W/m2
08:26 13.8 °C 13.5 °C 1008.7 hPa SSW 3.2 km/h 9.7 km/h 98 % 0 mm 44 W/m2
08:31 13.8 °C 13.3 °C 1008.7 hPa SSW 1.6 km/h 9.7 km/h 97 % 0 mm 53 W/m2
08:36 13.8 °C 13.3 °C 1008.7 hPa SSW 1.6 km/h 8 km/h 97 % 0 mm 46 W/m2
08:41 13.8 °C 13.3 °C 1008.7 hPa SSW 1.6 km/h 8 km/h 97 % 0 mm 47 W/m2
08:46 13.9 °C 13.4 °C 1009 hPa SSW 1.6 km/h 8 km/h 97 % 0 mm 54 W/m2
08:51 13.9 °C 13.4 °C 1008.7 hPa SSW 3.2 km/h 8 km/h 97 % 0 mm 120 W/m2
08:56 14 °C 13.7 °C 1008.7 hPa SSW 4.8 km/h 9.7 km/h 98 % 0 mm 141 W/m2
09:01 14.1 °C 13.8 °C 1008.7 hPa SSE 6.4 km/h 11.3 km/h 98 % 0 mm 185 W/m2
09:06 14.2 °C 13.9 °C 1009 hPa SE 8 km/h 12.9 km/h 98 % 0 mm 176 W/m2
09:11 14.3 °C 14 °C 1009 hPa SE 8 km/h 12.9 km/h 98 % 0 mm 142 W/m2
09:16 14.4 °C 14.1 °C 1009 hPa SE 4.8 km/h 12.9 km/h 98 % 0 mm 137 W/m2
09:21 14.5 °C 14.2 °C 1009 hPa SE 4.8 km/h 12.9 km/h 98 % 0 mm 158 W/m2
09:26 14.6 °C 14.3 °C 1009 hPa SSE 6.4 km/h 12.9 km/h 98 % 0 mm 206 W/m2
09:31 14.6 °C 14.3 °C 1009 hPa SSE 6.4 km/h 12.9 km/h 98 % 0 mm 178 W/m2
09:36 14.7 °C 14.4 °C 1009 hPa SSE 8 km/h 12.9 km/h 98 % 0 mm 156 W/m2
09:41 14.7 °C 14.4 °C 1009 hPa SSE 8 km/h 12.9 km/h 98 % 0 mm 169 W/m2
09:46 14.8 °C 14.5 °C 1009 hPa SSE 6.4 km/h 12.9 km/h 98 % 0 mm 141 W/m2
09:51 14.8 °C 14.3 °C 1009 hPa SE 6.4 km/h 11.3 km/h 97 % 0 mm 125 W/m2
09:56 14.9 °C 14.4 °C 1009 hPa SE 6.4 km/h 11.3 km/h 97 % 0 mm 137 W/m2
10:01 15 °C 14.7 °C 1009 hPa SE 4.8 km/h 11.3 km/h 98 % 0 mm 174 W/m2
10:06 15.1 °C 14.8 °C 1009 hPa SE 6.4 km/h 11.3 km/h 98 % 0 mm 190 W/m2
10:11 15.2 °C 14.7 °C 1009 hPa SE 6.4 km/h 11.3 km/h 97 % 0 mm 279 W/m2
10:16 15.4 °C 15.1 °C 1009 hPa SE 4.8 km/h 11.3 km/h 98 % 0 mm 251 W/m2
10:21 15.5 °C 15 °C 1009 hPa SE 6.4 km/h 11.3 km/h 97 % 0 mm 276 W/m2
10:26 15.7 °C 15.2 °C 1009 hPa SE 6.4 km/h 11.3 km/h 97 % 0 mm 336 W/m2
10:31 15.8 °C 15.3 °C 1009 hPa SE 6.4 km/h 9.7 km/h 97 % 0 mm 250 W/m2
10:36 15.9 °C 15.4 °C 1009 hPa ESE 6.4 km/h 9.7 km/h 97 % 0 mm 163 W/m2
10:41 15.9 °C 15.4 °C 1009 hPa ESE 6.4 km/h 11.3 km/h 97 % 0 mm 200 W/m2
10:46 16 °C 15.5 °C 1009 hPa SE 6.4 km/h 11.3 km/h 97 % 0 mm 192 W/m2
10:51 16.1 °C 15.4 °C 1009 hPa SE 6.4 km/h 12.9 km/h 96 % 0 mm 221 W/m2
10:56 16.2 °C 15.6 °C 1009 hPa SSE 8 km/h 12.9 km/h 96 % 0 mm 257 W/m2
11:01 16.3 °C 15.7 °C 1009.4 hPa SSE 8 km/h 14.5 km/h 96 % 0 mm 308 W/m2
11:06 16.5 °C 15.8 °C 1009.4 hPa South 8 km/h 14.5 km/h 96 % 0 mm 510 W/m2
11:11 16.7 °C 15.9 °C 1009.4 hPa SSE 8 km/h 14.5 km/h 95 % 0 mm 343 W/m2
11:16 16.9 °C 16.1 °C 1009.4 hPa SSE 8 km/h 16.1 km/h 95 % 0 mm 274 W/m2
11:21 17 °C 16 °C 1009.4 hPa SSE 8 km/h 16.1 km/h 94 % 0 mm 311 W/m2
11:26 17.2 °C 16.2 °C 1009.4 hPa SSE 8 km/h 16.1 km/h 94 % 0 mm 246 W/m2
11:31 17.2 °C 16.1 °C 1009.4 hPa SSE 8 km/h 16.1 km/h 93 % 0 mm 239 W/m2
11:36 17.4 °C 16.3 °C 1009.7 hPa SE 6.4 km/h 12.9 km/h 93 % 0 mm 195 W/m2
11:41 17.5 °C 16.3 °C 1009.7 hPa SE 3.2 km/h 12.9 km/h 93 % 0 mm 223 W/m2
11:46 17.6 °C 16.3 °C 1009.7 hPa SE 3.2 km/h 8 km/h 92 % 0 mm 229 W/m2
11:51 17.7 °C 16.4 °C 1009.7 hPa South 4.8 km/h 11.3 km/h 92 % 0 mm 265 W/m2
11:56 17.8 °C 16.3 °C 1009.7 hPa South 6.4 km/h 11.3 km/h 91 % 0 mm 364 W/m2
12:01 18.1 °C 16.8 °C 1009.7 hPa South 6.4 km/h 12.9 km/h 92 % 0 mm 508 W/m2
12:06 18.3 °C 16.8 °C 1009.4 hPa South 8 km/h 14.5 km/h 91 % 0 mm 411 W/m2
12:11 18.6 °C 16.9 °C 1009.4 hPa South 9.7 km/h 16.1 km/h 90 % 0 mm 445 W/m2
12:16 18.8 °C 16.8 °C 1009.4 hPa South 9.7 km/h 17.7 km/h 88 % 0 mm 543 W/m2
12:21 19.2 °C 17.3 °C 1009.4 hPa South 9.7 km/h 17.7 km/h 89 % 0 mm 809 W/m2
12:26 19.5 °C 17.3 °C 1009.4 hPa South 9.7 km/h 16.1 km/h 87 % 0 mm 483 W/m2
12:32 19.7 °C 17.5 °C 1009.4 hPa SSE 11.3 km/h 19.3 km/h 87 % 0 mm 680 W/m2
12:37 20 °C 17.4 °C 1009 hPa South 11.3 km/h 20.9 km/h 85 % 0 mm 663 W/m2
12:42 20.2 °C 17.4 °C 1009 hPa South 11.3 km/h 20.9 km/h 84 % 0 mm 520 W/m2
12:53 20.4 °C 17.4 °C 1009 hPa South 11.3 km/h 17.7 km/h 83 % 0 mm 686 W/m2
12:58 20.6 °C 17.6 °C 1009 hPa SSW 9.7 km/h 17.7 km/h 83 % 0 mm 635 W/m2
13:03 20.8 °C 17.6 °C 1009 hPa South 9.7 km/h 17.7 km/h 82 % 0 mm 684 W/m2
13:04 20.9 °C 17.7 °C 1009 hPa South 9.7 km/h 17.7 km/h 82 % 0 mm 543 W/m2
13:09 20.9 °C 17.5 °C 1008.7 hPa South 9.7 km/h 16.1 km/h 81 % 0 mm 366 W/m2
13:14 21 °C 17.6 °C 1008.7 hPa South 9.7 km/h 19.3 km/h 81 % 0 mm 475 W/m2
13:19 21 °C 17.6 °C 1008.7 hPa SSW 11.3 km/h 19.3 km/h 81 % 0 mm 244 W/m2
13:24 20.8 °C 17.4 °C 1009 hPa South 11.3 km/h 17.7 km/h 81 % 0 mm 237 W/m2
13:29 20.8 °C 17.4 °C 1008.7 hPa SSE 9.7 km/h 16.1 km/h 81 % 0 mm 276 W/m2
13:34 20.8 °C 17.4 °C 1009 hPa South 9.7 km/h 19.3 km/h 81 % 0 mm 178 W/m2
13:39 20.7 °C 17.3 °C 1008.7 hPa SSE 11.3 km/h 19.3 km/h 81 % 0 mm 220 W/m2
13:44 20.7 °C 17.5 °C 1008.7 hPa SSE 11.3 km/h 17.7 km/h 82 % 0 mm 357 W/m2
13:49 20.8 °C 17.6 °C 1008.7 hPa SSE 11.3 km/h 16.1 km/h 82 % 0 mm 323 W/m2
13:54 20.9 °C 17.7 °C 1008.7 hPa SSE 9.7 km/h 16.1 km/h 82 % 0 mm 313 W/m2
13:59 21 °C 17.8 °C 1008.7 hPa SSE 8 km/h 14.5 km/h 82 % 0 mm 295 W/m2
14:04 21.2 °C 17.6 °C 1008.7 hPa South 9.7 km/h 17.7 km/h 80 % 0 mm 325 W/m2
14:10 21.3 °C 17.7 °C 1009 hPa SSW 11.3 km/h 19.3 km/h 80 % 0 mm 265 W/m2
14:14 21.4 °C 17.6 °C 1009 hPa SSW 11.3 km/h 19.3 km/h 79 % 0 mm 338 W/m2
14:19 21.4 °C 17.4 °C 1009 hPa SSW 12.9 km/h 20.9 km/h 78 % 0 mm 234 W/m2
14:25 21.4 °C 17.6 °C 1009 hPa SSW 14.5 km/h 25.7 km/h 79 % 0 mm 301 W/m2
14:30 21.2 °C 17.4 °C 1009 hPa SSW 14.5 km/h 25.7 km/h 79 % 0 mm 260 W/m2
14:35 21.2 °C 17.4 °C 1009 hPa SSW 12.9 km/h 25.7 km/h 79 % 0 mm 257 W/m2
14:40 21.2 °C 17.4 °C 1009 hPa SSW 12.9 km/h 22.5 km/h 79 % 0 mm 258 W/m2
14:45 21.1 °C 17.3 °C 1009 hPa SSW 12.9 km/h 22.5 km/h 79 % 0 mm 244 W/m2
14:47 21.1 °C 17.5 °C 1009 hPa SSW 12.9 km/h 22.5 km/h 80 % 0 mm 218 W/m2
14:52 21.1 °C 17.5 °C 1009 hPa SSW 12.9 km/h 20.9 km/h 80 % 0 mm 257 W/m2
14:57 21 °C 17.4 °C 1009 hPa SSW 12.9 km/h 22.5 km/h 80 % 0 mm 260 W/m2
15:02 20.9 °C 17.5 °C 1009 hPa SSW 12.9 km/h 22.5 km/h 81 % 0 mm 165 W/m2
15:07 20.8 °C 17.4 °C 1009 hPa SSW 12.9 km/h 22.5 km/h 81 % 0 mm 220 W/m2
15:12 20.8 °C 17.4 °C 1009 hPa SSW 12.9 km/h 22.5 km/h 81 % 0 mm 172 W/m2
15:17 20.8 °C 17.4 °C 1009 hPa SSW 11.3 km/h 22.5 km/h 81 % 0 mm 295 W/m2
15:22 20.9 °C 17.5 °C 1009 hPa South 9.7 km/h 20.9 km/h 81 % 0 mm 127 W/m2
15:27 20.9 °C 17.5 °C 1009 hPa SSW 11.3 km/h 17.7 km/h 81 % 0 mm 186 W/m2
15:33 21 °C 17.6 °C 1009 hPa SSW 12.9 km/h 22.5 km/h 81 % 0 mm 155 W/m2
15:38 21.1 °C 17.5 °C 1009 hPa SW 12.9 km/h 22.5 km/h 80 % 0 mm 267 W/m2
15:43 21.2 °C 17.6 °C 1009 hPa SW 12.9 km/h 20.9 km/h 80 % 0 mm 323 W/m2
15:48 21.3 °C 17.7 °C 1009 hPa SSW 12.9 km/h 22.5 km/h 80 % 0 mm 213 W/m2
15:53 21.2 °C 17.4 °C 1009 hPa SSW 14.5 km/h 32.2 km/h 79 % 0 mm 207 W/m2
15:58 21.1 °C 17.3 °C 1009 hPa SSW 14.5 km/h 32.2 km/h 79 % 0 mm 158 W/m2
16:03 21.1 °C 17.5 °C 1009 hPa SSW 12.9 km/h 22.5 km/h 80 % 0 mm 156 W/m2
16:08 21 °C 17.6 °C 1009 hPa SSW 11.3 km/h 19.3 km/h 81 % 0 mm 130 W/m2
16:13 21 °C 17.6 °C 1009 hPa SSW 11.3 km/h 17.7 km/h 81 % 0 mm 141 W/m2
16:18 20.9 °C 17.5 °C 1009 hPa SSW 12.9 km/h 19.3 km/h 81 % 0 mm 165 W/m2
16:23 20.9 °C 17.5 °C 1009 hPa SSW 12.9 km/h 20.9 km/h 81 % 0 mm 202 W/m2
16:28 20.9 °C 17.5 °C 1009 hPa SSW 11.3 km/h 20.9 km/h 81 % 0 mm 171 W/m2
16:33 20.9 °C 17.3 °C 1009 hPa South 9.7 km/h 19.3 km/h 80 % 0 mm 72 W/m2
16:38 20.9 °C 17.3 °C 1009 hPa South 11.3 km/h 19.3 km/h 80 % 0 mm 90 W/m2
16:43 20.8 °C 17.2 °C 1009 hPa SSW 11.3 km/h 19.3 km/h 80 % 0 mm 95 W/m2
16:48 20.8 °C 17.4 °C 1009 hPa SSW 9.7 km/h 19.3 km/h 81 % 0 mm 77 W/m2
16:53 20.8 °C 17.4 °C 1009 hPa SSW 6.4 km/h 16.1 km/h 81 % 0 mm 113 W/m2
16:58 20.8 °C 17.4 °C 1009 hPa South 8 km/h 16.1 km/h 81 % 0 mm 118 W/m2
17:03 20.9 °C 17.5 °C 1009 hPa South 8 km/h 16.1 km/h 81 % 0 mm 97 W/m2
17:08 20.9 °C 17.5 °C 1009 hPa SSW 8 km/h 16.1 km/h 81 % 0 mm 91 W/m2
17:13 20.9 °C 17.5 °C 1009 hPa SSW 9.7 km/h 16.1 km/h 81 % 0 mm 77 W/m2
17:18 20.9 °C 17.5 °C 1009 hPa SSW 9.7 km/h 17.7 km/h 81 % 0 mm 104 W/m2
17:23 20.9 °C 17.5 °C 1009 hPa South 11.3 km/h 24.1 km/h 81 % 0 mm 100 W/m2
17:28 20.9 °C 17.5 °C 1009 hPa SSW 11.3 km/h 24.1 km/h 81 % 0 mm 69 W/m2
17:33 20.9 °C 17.5 °C 1009.4 hPa SSW 9.7 km/h 16.1 km/h 81 % 0 mm 39 W/m2
17:34 20.9 °C 17.5 °C 1009.4 hPa SSW 8 km/h 16.1 km/h 81 % 0 mm 39 W/m2
17:39 20.8 °C 17.4 °C 1009.4 hPa SSW 9.7 km/h 16.1 km/h 81 % 0 mm 51 W/m2
17:44 20.8 °C 17.4 °C 1009.4 hPa SSW 9.7 km/h 16.1 km/h 81 % 0 mm 58 W/m2
17:49 20.8 °C 17.6 °C 1009.4 hPa SW 8 km/h 14.5 km/h 82 % 0 mm 81 W/m2
17:54 20.8 °C 17.4 °C 1009.4 hPa SW 9.7 km/h 22.5 km/h 81 % 0 mm 90 W/m2
17:59 20.8 °C 17.4 °C 1009.4 hPa SW 9.7 km/h 22.5 km/h 81 % 0 mm 93 W/m2
18:04 20.8 °C 17.2 °C 1009 hPa SW 9.7 km/h 16.1 km/h 80 % 0 mm 70 W/m2
18:09 20.8 °C 17.2 °C 1009.4 hPa SW 9.7 km/h 19.3 km/h 80 % 0 mm 58 W/m2
18:14 20.8 °C 17.2 °C 1009 hPa SW 11.3 km/h 22.5 km/h 80 % 0 mm 60 W/m2
18:19 20.8 °C 17.2 °C 1009.4 hPa SW 9.7 km/h 22.5 km/h 80 % 0 mm 69 W/m2
18:24 20.8 °C 17.2 °C 1009.4 hPa SW 11.3 km/h 16.1 km/h 80 % 0 mm 69 W/m2
18:29 20.8 °C 17.2 °C 1009.4 hPa SW 11.3 km/h 19.3 km/h 80 % 0 mm 40 W/m2
18:34 20.7 °C 16.9 °C 1009.7 hPa SW 12.9 km/h 20.9 km/h 79 % 0 mm 33 W/m2
18:39 20.7 °C 16.7 °C 1009.7 hPa WSW 12.9 km/h 24.1 km/h 78 % 0 mm 35 W/m2
18:44 20.7 °C 16.7 °C 1009.7 hPa WSW 14.5 km/h 33.8 km/h 78 % 0 mm 39 W/m2
18:49 20.6 °C 16.6 °C 1009.7 hPa WSW 16.1 km/h 33.8 km/h 78 % 0 mm 37 W/m2
18:54 20.5 °C 16.6 °C 1009.7 hPa SW 14.5 km/h 24.1 km/h 78 % 0 mm 30 W/m2
18:59 20.4 °C 16.2 °C 1009.7 hPa WSW 14.5 km/h 24.1 km/h 77 % 0 mm 28 W/m2
19:04 20.4 °C 16.2 °C 1009.7 hPa WSW 14.5 km/h 24.1 km/h 77 % 0 mm 19 W/m2
19:09 20.3 °C 16.3 °C 1009.7 hPa SW 14.5 km/h 24.1 km/h 78 % 0 mm 9 W/m2
19:14 20.2 °C 16.2 °C 1009.7 hPa SW 14.5 km/h 25.7 km/h 78 % 0 mm 9 W/m2
19:19 20.1 °C 16.2 °C 1009.7 hPa WSW 16.1 km/h 25.7 km/h 78 % 0 mm 11 W/m2
19:24 20.1 °C 16.2 °C 1009.7 hPa WSW 14.5 km/h 25.7 km/h 78 % 0 mm 9 W/m2
19:29 20 °C 16.2 °C 1010 hPa WSW 12.9 km/h 20.9 km/h 79 % 0 mm 5 W/m2
19:34 19.9 °C 16.2 °C 1009.7 hPa WSW 12.9 km/h 20.9 km/h 79 % 0 mm 5 W/m2
19:39 19.8 °C 16.1 °C 1009.7 hPa WSW 12.9 km/h 20.9 km/h 79 % 0 mm 0 W/m2
19:44 19.8 °C 16.2 °C 1009.7 hPa WSW 11.3 km/h 20.9 km/h 80 % 0 mm 0 W/m2
19:49 19.7 °C 16.2 °C 1009.7 hPa WSW 11.3 km/h 19.3 km/h 80 % 0 mm 0 W/m2
19:54 19.7 °C 16.2 °C 1010 hPa WSW 11.3 km/h 22.5 km/h 80 % 0 mm 0 W/m2
19:59 19.6 °C 16.1 °C 1010 hPa WSW 11.3 km/h 22.5 km/h 80 % 0 mm 0 W/m2
20:04 19.6 °C 16.2 °C 1010 hPa WSW 9.7 km/h 19.3 km/h 81 % 0 mm 0 W/m2
20:09 19.5 °C 16.2 °C 1010 hPa WSW 8 km/h 16.1 km/h 81 % 0 mm 0 W/m2
20:14 19.5 °C 16.2 °C 1010.4 hPa WSW 9.7 km/h 17.7 km/h 81 % 0 mm 0 W/m2
20:19 19.4 °C 16.1 °C 1010.4 hPa WSW 11.3 km/h 22.5 km/h 81 % 0 mm 0 W/m2
20:24 19.4 °C 16.1 °C 1010.4 hPa WSW 12.9 km/h 24.1 km/h 81 % 0 mm 0 W/m2
20:29 19.4 °C 16.1 °C 1010.4 hPa WSW 16.1 km/h 24.1 km/h 81 % 0 mm 0 W/m2
20:34 19.4 °C 16.1 °C 1010.4 hPa WSW 16.1 km/h 24.1 km/h 81 % 0 mm 0 W/m2
20:39 19.4 °C 16.1 °C 1010.4 hPa WSW 14.5 km/h 22.5 km/h 81 % 0 mm 0 W/m2
20:44 19.3 °C 16.2 °C 1010.7 hPa WSW 14.5 km/h 24.1 km/h 82 % 0 mm 0 W/m2
20:49 19.3 °C 16.2 °C 1010.7 hPa WSW 14.5 km/h 24.1 km/h 82 % 0 mm 0 W/m2
20:54 19.3 °C 16.2 °C 1010.7 hPa WSW 12.9 km/h 19.3 km/h 82 % 0 mm 0 W/m2
20:59 19.2 °C 16.1 °C 1010.7 hPa SW 11.3 km/h 20.9 km/h 82 % 0 mm 0 W/m2
21:04 19.2 °C 16.1 °C 1011.1 hPa SW 11.3 km/h 20.9 km/h 82 % 0 mm 0 W/m2
21:09 19.2 °C 16.1 °C 1011.1 hPa SW 9.7 km/h 14.5 km/h 82 % 0 mm 0 W/m2
21:14 19.2 °C 16.1 °C 1011.1 hPa WSW 6.4 km/h 14.5 km/h 82 % 0 mm 0 W/m2
21:19 19.2 °C 16.1 °C 1011.1 hPa WSW 4.8 km/h 12.9 km/h 82 % 0 mm 0 W/m2
21:24 19.1 °C 15.8 °C 1011.1 hPa WSW 6.4 km/h 14.5 km/h 81 % 0 mm 0 W/m2
21:29 19.1 °C 15.8 °C 1011.1 hPa WSW 8 km/h 14.5 km/h 81 % 0 mm 0 W/m2
21:34 18.9 °C 15.8 °C 1011.1 hPa WSW 9.7 km/h 16.1 km/h 82 % 0 mm 0 W/m2
21:39 18.9 °C 15.8 °C 1010.7 hPa WSW 9.7 km/h 19.3 km/h 82 % 0 mm 0 W/m2
21:44 18.8 °C 15.7 °C 1011.1 hPa WSW 8 km/h 19.3 km/h 82 % 0 mm 0 W/m2
21:49 18.8 °C 15.8 °C 1011.1 hPa WSW 6.4 km/h 12.9 km/h 83 % 0 mm 0 W/m2
21:54 18.8 °C 15.8 °C 1011.1 hPa West 4.8 km/h 12.9 km/h 83 % 0 mm 0 W/m2
21:59 18.7 °C 15.8 °C 1011.1 hPa West 3.2 km/h 14.5 km/h 83 % 0 mm 0 W/m2
22:04 18.7 °C 15.8 °C 1011.1 hPa West 8 km/h 17.7 km/h 83 % 0 mm 0 W/m2
22:09 18.6 °C 15.8 °C 1011.1 hPa WNW 8 km/h 17.7 km/h 84 % 0 mm 0 W/m2
22:14 18.6 °C 15.8 °C 1011.1 hPa WNW 6.4 km/h 12.9 km/h 84 % 0 mm 0 W/m2
22:19 18.5 °C 15.7 °C 1011.1 hPa WNW 6.4 km/h 11.3 km/h 84 % 0 mm 0 W/m2
22:24 18.4 °C 15.7 °C 1011.1 hPa West 8 km/h 12.9 km/h 84 % 0 mm 0 W/m2
22:29 18.4 °C 15.7 °C 1011.1 hPa West 8 km/h 12.9 km/h 84 % 0 mm 0 W/m2
22:34 18.4 °C 15.8 °C 1011.1 hPa West 8 km/h 11.3 km/h 85 % 0 mm 0 W/m2
22:39 18.4 °C 15.8 °C 1011.1 hPa WSW 8 km/h 12.9 km/h 85 % 0 mm 0 W/m2
22:44 18.3 °C 15.7 °C 1011.1 hPa WSW 8 km/h 12.9 km/h 85 % 0 mm 0 W/m2
22:49 18.3 °C 15.7 °C 1011.4 hPa WSW 6.4 km/h 12.9 km/h 85 % 0 mm 0 W/m2
22:55 18.3 °C 15.9 °C 1011.1 hPa SW 4.8 km/h 9.7 km/h 86 % 0 mm 0 W/m2
23:00 18.3 °C 15.9 °C 1011.4 hPa SW 6.4 km/h 11.3 km/h 86 % 0 mm 0 W/m2
23:05 18.2 °C 15.8 °C 1011.1 hPa SW 6.4 km/h 12.9 km/h 86 % 0 mm 0 W/m2
23:10 18.2 °C 15.8 °C 1011.1 hPa West 4.8 km/h 12.9 km/h 86 % 0 mm 0 W/m2
23:15 18.2 °C 15.8 °C 1011.1 hPa WNW 4.8 km/h 11.3 km/h 86 % 0 mm 0 W/m2
23:20 18.1 °C 15.7 °C 1011.1 hPa West 8 km/h 14.5 km/h 86 % 0 mm 0 W/m2
23:25 18.1 °C 15.7 °C 1011.1 hPa WSW 8 km/h 14.5 km/h 86 % 0 mm 0 W/m2
23:30 18.1 °C 15.7 °C 1011.1 hPa WSW 4.8 km/h 12.9 km/h 86 % 0 mm 0 W/m2
23:35 18.1 °C 15.7 °C 1011.1 hPa WSW 1.6 km/h 9.7 km/h 86 % 0 mm 0 W/m2
23:40 18.1 °C 15.7 °C 1011.1 hPa Calm   6.4 km/h 86 % 0 mm 0 W/m2
23:45 18.1 °C 15.7 °C 1011.1 hPa Calm   3.2 km/h 86 % 0 mm 0 W/m2
23:50 18.1 °C 15.7 °C 1011.1 hPa Calm   3.2 km/h 86 % 0 mm 0 W/m2
23:55 18.1 °C 15.7 °C 1011.1 hPa Calm     86 % 0 mm 0 W/m2
Delerius-Weather
Compliments of Weather Underground - 2.25 mb

Data updates at regular intervals.